Probability
0 0 0 0 0 0 0 0 0 0 0 0 0 0 0 0 0 0 0 0 0 0 0 0 0 0 0 0 0 0 0 0 0 0 0 0 0 0 0 0 0 0 0
0 0 0 0 0 0 0 0 0 0 0 0 0 0 0 0 0 0 0 0 0 0 0 0 0 0 0 0 0 0 0 0 0 0 0 0 0 0 0 0 0 0 0
0 0 0 0 0 0 0 0 0 0 0 0 0 0 0 0 0 0 0 0 0 0 0 0 0 0 0 0 0 0 0 0 0 0 0 0 0 0 0 0 0 0 0
0 0 0 0 0 0 0 0 0 0 0 0 0 0 0 0 0 0 0 0 0 0 0 0 0 0 0 0 0 0 0 0 0 0 0 0 0 0 0 0 0 0 0
0 0 0 0 0 0 0 0 0 0 0 0 0 0 0 0 0 0 0 0 0 0 0 0 0 0 0 0 0 0 0 0 0 0 0 0 0 0 0 0 0 0 0
0 0 0 0 0 0 0 0 0 0 0 0 0 0 0 0 0 0 0 0 0 0 0 0 0 0 0 0 0 0 0 0 0 0 0 0 0 0 0 0 0 0 0
0 0 0 0 0 0 0 0 0 0 0 0 0 0 0 0 0 0 0 0 0 0 0 0 0 0 0 0 0 0 0 0 0 0 0 0 0 0 0 0 0 0 0
0 0 0 0 0 0 0 0 0 0 0 0 0 0 0 0 0 0 0 0 0 0 0 0 0 0 0 0 0 0 0 0 0 0 0 0 0 0 0 0 0 0 0
0 0 0 0 0 0 0 0 0 0 0 0 0 0 0 0 0 0 0 0 0 0 0 0 0 0 0 0 0 0 0 0 0 0 0 0 0 0 0 0 0 0 0
0 0 0 0 0 0 0 0 0 0 0 0 0 0 0 0 0 0 0 0 0 0 0 0 0 0 0 0 0 0 0 0 0 0 0 0 0 0 0 0 0 0 0
0 0 0 0 0 0 0 0 0 0 0 0 0 0 0 0 0 0 0 0 0 0 0 0 0 0 0 0 0 0 0 0 0 0 0 0 0 0 0 0 0 0 0
0 0 0 0 0 0 0 0 0 0 0 0 0 0 0 0 0 0 0 0 0 0 0 0 0 0 0 0 0 0 0 0 0 0 0 0 0 0 0 0 0 0 0
0 0 0 0 0 0 0 0 0 0 0 0 0 0 0 0 0 0 0 0 0 0 0 0 0 0 0 0 0 0 0 0 0 0 0 0 0 0 0 0 0 0 0
0 0 0 0 0 0 0 0 0 0 0 0 0 0 0 0 0 0 0 0 0 0 0 0 0 0 0 0 0 0 0 0 0 0 0 0 0 0 0 0 0 0 0
0 0 0 0 0 0 0 0 0 0 0 0 0 0 0 0 0 0 0 0 0 0 0 0 0 0 0 0 0 0 0 0 0 0 0 0 0 0 0 0 0 0 0
0 0 0 0 0 0 0 0 0 0 0 0 0 0 0 0 0 0 0 0 0 0 0 0 0 0 0 0 0 0 0 0 0 0 0 0 0 0 0 0 0 0 0
0 0 0 0 0 0 0 0 0 0 0 0 0 0 0 0 0 0 0 0 0 0 0 0 0 0 0 0 0 0 0 0 0 0 0 0 0 0 0 0 0 0 0
0 0 0 0 0 0 0 0 0 0 0 0 0 0 0 0 0 0 0 0 0 0 0 0 0 0 0 0 0 0 0 0 0 0 0 0 0 0 0 0 0 0 0
0 0 0 0 0 0 0 0 0 0 0 0 0 0 0 0 0 0 0 0 0 0 0 0 0 0 0 0 0 0 0 0 0 0 0 0 0 0 0 0 0 0 0
0 0 0 0 0 0 0 0 0 0 0 0 0 0 0 0 0 0 0 0 0 0 0 0 0 0 0 0 0 0 0 0 0 0 0 0 0 0 0 0 0 0 0
0 0 0 0 0 0 0 0 0 0 0 0 0 0 0 0 0 0 0 0 0 0 0 0 0 0 0 0 0 0 0 0 0 0 0 0 0 0 0 0 0 0 0
0 0 0 0 0 0 0 0 0 0 0 0 0 0 0 0 0 0 0 0 0 0 0 0 0 0 0 0 0 0 0 0 0 0 0 0 0 0 0 0 0 0 0
0 0 0 0 0 0 0 0 0 0 0 0 0 0 0 0 0 0 0 0 0 0 0 0 0 0 0 0 0 0 0 0 0 0 0 0 0 0 0 0 0 0 0
0 0 0 0 0 0 0 0 0 0 0 0 0 0 0 0 0 0 0 0 0 0 0 0 0 0 0 0 0 0 0 0 0 0 0 0 0 0 0 0 0 0 0
0 0 0 0 0 0 0 0 0 0 0 0 0 0 0 0 0 0 0 0 0 0 0 0 0 0 0 0 0 0 0 0 0 0 0 0 0 0 0 0 0 0 0
0 0 0 0 0 0 0 0 0 0 0 0 0 0 0 0 0 0 0 0 0 0 0 0 0 0 0 0 0 0 0 0 0 0 0 0 0 0 0 0 0 0 0
Height
5647 5653 5658 5662 5667 5672 5678 5684 5690 5695 5700 5706 5711 5716 5720 5724 5728 5731 5734 5737 5740 5742 5745 5747 5748 5750 5751 5752 5753 5754 5755 5756 5757 5758 5758 5757 5757 5756 5755 5755 5754 5753 5752
5636 5642 5647 5652 5657 5662 5667 5673 5679 5684 5689 5694 5700 5705 5709 5713 5717 5720 5723 5726 5729 5731 5733 5735 5737 5738 5740 5741 5742 5743 5744 5745 5745 5746 5746 5746 5746 5745 5744 5744 5743 5742 5741
5625 5631 5637 5642 5646 5652 5657 5662 5668 5673 5678 5683 5688 5693 5697 5701 5705 5709 5712 5714 5717 5719 5722 5723 5725 5727 5728 5730 5731 5732 5733 5733 5734 5734 5735 5735 5734 5733 5733 5733 5732 5731 5730
5615 5620 5626 5631 5636 5641 5646 5651 5657 5662 5667 5671 5676 5681 5686 5690 5693 5696 5699 5702 5705 5707 5709 5711 5713 5715 5716 5718 5719 5720 5721 5722 5722 5723 5723 5723 5723 5722 5721 5721 5720 5719 5719
5605 5610 5615 5620 5625 5631 5636 5641 5646 5651 5656 5661 5665 5670 5674 5678 5681 5684 5687 5690 5693 5695 5697 5699 5701 5703 5704 5706 5707 5708 5709 5710 5710 5711 5711 5711 5711 5711 5710 5709 5709 5708 5707
5595 5600 5604 5609 5615 5620 5625 5631 5636 5640 5645 5650 5654 5658 5662 5666 5669 5672 5675 5678 5680 5683 5685 5687 5689 5691 5692 5694 5695 5696 5697 5698 5699 5699 5699 5699 5699 5699 5698 5697 5696 5696 5695
5585 5589 5594 5599 5604 5609 5614 5619 5624 5629 5633 5638 5642 5646 5650 5654 5657 5660 5663 5665 5668 5670 5673 5675 5677 5678 5680 5682 5683 5684 5685 5686 5686 5687 5687 5687 5687 5687 5686 5685 5684 5683 5682
5576 5580 5584 5589 5594 5599 5603 5607 5612 5617 5621 5625 5630 5634 5638 5641 5644 5647 5650 5652 5655 5658 5660 5662 5664 5666 5667 5669 5671 5672 5673 5673 5674 5674 5675 5675 5674 5674 5673 5672 5671 5670 5669
5567 5571 5574 5578 5583 5587 5591 5596 5600 5604 5608 5612 5617 5621 5625 5628 5631 5634 5636 5639 5642 5645 5647 5649 5651 5653 5655 5656 5658 5659 5660 5661 5661 5662 5662 5662 5661 5661 5660 5659 5658 5657 5657
5557 5561 5564 5568 5571 5576 5580 5584 5588 5592 5595 5599 5603 5607 5611 5615 5618 5620 5623 5625 5629 5632 5634 5636 5638 5640 5642 5642 5644 5646 5647 5648 5648 5649 5649 5649 5649 5648 5647 5645 5644 5644 5643
5547 5551 5554 5557 5560 5564 5568 5572 5576 5580 5583 5587 5591 5595 5598 5601 5604 5607 5609 5612 5614 5617 5620 5622 5625 5627 5628 5629 5631 5632 5634 5634 5635 5635 5636 5636 5635 5635 5634 5633 5632 5631 5630
5537 5541 5544 5546 5549 5552 5556 5560 5563 5567 5571 5574 5578 5581 5585 5588 5590 5593 5596 5598 5600 5603 5606 5608 5611 5613 5614 5616 5617 5619 5620 5620 5621 5622 5622 5623 5622 5622 5621 5620 5619 5617 5617
5527 5530 5533 5536 5538 5541 5545 5548 5551 5555 5559 5562 5565 5569 5572 5575 5578 5580 5582 5585 5587 5589 5592 5594 5597 5599 5600 5602 5604 5605 5606 5607 5607 5608 5609 5609 5608 5608 5607 5606 5605 5604 5603
5517 5520 5522 5525 5528 5530 5533 5537 5540 5543 5546 5549 5553 5556 5559 5562 5565 5567 5569 5571 5574 5576 5578 5581 5583 5585 5586 5588 5590 5591 5592 5593 5594 5594 5595 5595 5594 5594 5593 5593 5592 5591 5589
5507 5510 5512 5514 5517 5519 5522 5525 5528 5531 5534 5537 5540 5544 5547 5550 5552 5554 5555 5558 5560 5563 5564 5567 5569 5571 5573 5575 5576 5577 5578 5579 5580 5580 5581 5581 5580 5580 5579 5579 5578 5577 5575
5498 5500 5502 5504 5507 5509 5512 5514 5516 5520 5522 5525 5528 5531 5534 5537 5539 5541 5543 5545 5547 5549 5551 5554 5556 5558 5560 5561 5563 5563 5564 5565 5566 5566 5566 5566 5566 5566 5565 5564 5564 5563 5561
5488 5490 5492 5494 5496 5499 5501 5503 5506 5508 5510 5513 5516 5518 5521 5524 5526 5528 5530 5532 5534 5536 5538 5540 5543 5545 5546 5547 5549 5550 5550 5551 5552 5552 5553 5553 5552 5552 5552 5551 5550 5549 5547
5479 5480 5482 5484 5486 5488 5490 5492 5494 5496 5499 5501 5503 5506 5508 5511 5514 5516 5517 5519 5522 5524 5525 5527 5529 5531 5533 5534 5535 5536 5537 5538 5538 5538 5539 5539 5539 5538 5538 5537 5536 5535 5534
5469 5471 5473 5475 5476 5478 5480 5482 5484 5486 5488 5490 5492 5494 5496 5499 5501 5503 5505 5507 5509 5511 5512 5514 5516 5518 5519 5520 5522 5523 5524 5524 5525 5525 5525 5525 5525 5524 5524 5523 5522 5521 5520
5460 5462 5464 5465 5467 5469 5470 5472 5474 5476 5477 5479 5481 5483 5485 5487 5489 5491 5493 5494 5496 5498 5500 5501 5503 5504 5506 5507 5508 5509 5510 5511 5512 5512 5512 5511 5511 5511 5510 5510 5509 5507 5506
5451 5452 5454 5456 5457 5459 5461 5462 5464 5466 5467 5469 5471 5472 5474 5476 5478 5480 5481 5483 5484 5486 5488 5489 5490 5491 5492 5493 5494 5495 5496 5497 5498 5498 5498 5498 5498 5497 5497 5496 5495 5494 5492
5441 5443 5445 5446 5448 5450 5451 5453 5454 5456 5457 5459 5460 5462 5463 5465 5467 5469 5470 5472 5473 5474 5475 5477 5478 5479 5479 5480 5481 5482 5482 5483 5484 5484 5485 5484 5484 5483 5483 5482 5481 5480 5479
5432 5434 5436 5437 5439 5440 5442 5443 5444 5446 5447 5449 5450 5452 5453 5454 5456 5458 5459 5460 5461 5462 5463 5464 5465 5466 5467 5467 5467 5468 5469 5469 5470 5470 5470 5470 5470 5470 5469 5469 5468 5467 5466
5423 5425 5426 5428 5429 5431 5432 5433 5435 5436 5437 5439 5440 5442 5443 5444 5445 5447 5448 5449 5450 5451 5451 5452 5453 5453 5454 5454 5455 5455 5455 5456 5456 5456 5457 5457 5457 5457 5456 5456 5455 5454 5453
5414 5416 5417 5419 5420 5421 5423 5424 5425 5426 5427 5429 5430 5431 5433 5434 5435 5436 5437 5438 5439 5440 5440 5440 5441 5441 5442 5442 5442 5442 5443 5443 5443 5443 5444 5444 5444 5444 5444 5443 5443 5442 5441
5405 5407 5408 5409 5411 5412 5413 5414 5416 5417 5418 5419 5420 5422 5423 5424 5425 5426 5426 5427 5428 5429 5429 5429 5430 5430 5430 5430 5430 5430 5430 5431 5431 5431 5432 5432 5432 5432 5432 5431 5431 5430 5429
Wind_Speed
52 53 52 51 52 53 53 52 51 49 49 50 49 48 48 47 46 46 45 44 43 44 44 44 44 43 43 42 42 42 42 42 41 41 41 40 41 41 41 41 41 41 41
49 50 52 51 51 52 53 53 52 51 50 50 50 50 49 49 48 47 46 45 45 45 45 45 44 44 43 43 42 42 43 42 42 42 42 42 42 42 42 42 42 42 42
50 49 50 50 50 51 51 52 53 52 51 50 51 51 50 50 49 48 47 46 46 46 46 46 45 45 44 44 43 43 43 43 43 43 43 42 43 43 44 44 43 43 43
48 49 51 52 51 50 50 50 52 52 51 50 50 51 51 50 49 48 48 48 48 47 47 47 46 45 45 45 44 44 44 44 44 44 44 44 44 44 45 45 44 45 45
47 49 50 51 52 51 50 50 51 51 51 50 49 50 51 51 51 50 49 48 48 48 47 46 46 46 45 45 45 45 45 45 45 45 45 45 45 45 46 46 46 46 46
45 47 48 49 50 51 51 51 51 51 51 51 50 49 50 50 50 50 49 49 49 48 48 47 47 46 46 45 45 45 45 45 45 46 46 46 46 46 46 46 46 46 46
42 44 46 47 49 50 51 51 52 52 52 52 51 50 50 51 51 51 50 50 49 49 48 48 48 47 47 47 46 46 46 46 46 46 45 45 46 46 46 47 47 47 47
42 43 44 46 48 49 50 52 52 53 53 53 53 52 51 51 51 51 50 50 50 50 49 49 49 49 48 48 48 47 47 47 47 47 46 46 47 47 47 47 47 47 47
41 42 43 45 47 48 48 49 50 50 51 51 52 53 52 52 52 51 51 51 51 50 50 50 50 49 49 49 48 48 48 48 48 48 48 48 48 48 48 48 48 47 47
40 41 42 43 46 47 48 48 49 50 50 50 50 51 51 52 52 52 52 52 52 51 51 51 51 50 50 49 49 49 49 49 49 49 49 50 49 49 48 48 47 47 47
40 40 41 42 44 46 47 47 47 48 49 49 50 51 51 50 50 51 51 51 51 52 52 51 51 51 50 50 50 49 50 50 49 49 49 49 49 49 48 48 48 48 48
39 39 40 40 42 44 46 46 46 47 48 49 49 49 50 49 49 50 51 51 51 51 50 50 50 51 51 50 50 50 50 50 50 50 50 50 49 49 48 49 49 49 49
38 38 39 40 41 42 43 44 45 46 47 48 48 48 48 49 50 49 50 50 49 50 50 49 50 51 51 51 51 50 50 50 50 50 50 49 49 49 49 49 49 49 49
37 38 38 39 40 41 43 43 44 45 46 47 47 47 48 48 49 49 48 48 49 49 48 49 49 49 50 50 50 50 49 49 50 49 49 49 49 50 50 49 49 50 50
34 35 36 38 39 40 41 42 43 44 45 45 46 47 47 47 47 47 46 47 47 48 48 48 48 48 48 49 49 50 50 49 49 48 48 49 49 49 50 50 50 50 50
35 35 36 36 37 38 39 40 42 43 44 45 45 45 45 45 45 45 45 45 46 46 47 48 47 47 47 48 47 48 47 47 47 47 48 48 48 48 48 49 49 49 49
33 34 34 35 35 36 38 39 40 42 43 44 44 44 44 43 43 44 44 45 45 45 45 45 45 45 46 46 46 46 46 47 47 47 48 48 47 47 48 48 48 48 48
31 32 32 33 33 34 35 36 37 39 40 41 42 42 43 43 42 43 44 45 45 45 45 45 45 45 45 45 45 46 46 46 45 45 46 46 46 47 47 47 47 47 48
31 31 32 33 33 33 33 34 35 36 37 38 39 41 41 42 42 42 42 43 43 44 44 45 45 45 45 45 45 45 45 45 44 45 45 45 46 46 46 46 46 46 46
31 31 32 32 32 32 33 33 34 34 35 36 37 38 38 39 39 40 41 41 41 41 41 41 42 42 43 44 45 45 45 45 45 45 45 45 45 46 46 46 46 46 47
31 31 31 31 31 31 31 32 32 33 34 35 35 35 36 37 37 38 38 39 40 40 40 40 40 40 41 42 43 44 44 44 45 45 45 45 45 45 46 46 46 46 46
30 30 31 30 31 31 31 31 31 32 32 32 33 34 35 36 36 36 37 37 38 39 39 40 40 40 40 41 42 43 44 44 45 45 45 45 44 44 45 45 45 44 45
30 30 30 30 30 30 30 30 30 31 31 32 32 33 34 35 36 36 36 36 35 36 37 38 39 39 40 40 41 42 42 43 43 43 43 43 43 43 43 43 43 43 43
30 30 30 29 29 29 29 30 30 31 32 32 32 33 33 33 33 33 34 34 34 35 36 37 38 38 39 39 40 40 40 40 41 41 41 41 41 41 41 41 41 41 41
29 30 30 30 30 29 29 30 30 30 31 31 32 32 33 33 32 33 33 34 34 34 34 35 36 37 38 39 39 39 39 39 39 39 40 40 40 41 41 40 40 40 40
28 29 29 30 30 30 30 30 30 30 30 30 31 31 32 32 32 32 32 33 34 34 34 35 36 36 37 37 37 37 37 37 37 37 37 38 38 38 38 38 39 39 39
Wind_Direction
232 233 235 236 236 237 237 237 239 240 241 241 242 243 244 245 247 250 251 252 254 256 257 259 261 263 265 266 267 267 268 269 271 272 273 275 276 278 279 280 281 282 283
232 233 234 236 236 236 237 238 238 239 241 241 242 244 246 247 249 251 252 253 254 256 258 260 262 263 264 266 267 267 268 269 270 271 272 274 276 277 278 279 280 281 282
232 232 233 235 236 237 238 239 239 239 240 242 243 244 246 248 250 251 253 254 255 256 258 260 261 262 263 265 266 266 268 269 270 271 272 274 275 276 277 278 279 280 282
232 232 233 236 237 238 239 240 240 240 241 242 244 244 246 248 250 253 254 255 256 257 258 259 261 262 263 264 265 266 267 268 270 271 272 273 275 276 277 278 278 279 280
235 234 235 236 238 240 240 241 241 242 242 243 244 245 247 249 251 253 254 255 256 257 258 259 260 261 262 263 265 266 267 269 270 272 272 273 275 276 276 277 278 279 281
239 238 237 237 239 240 241 242 242 242 244 244 245 247 248 249 251 253 255 255 256 256 257 258 259 260 262 263 265 267 268 269 271 272 273 274 275 276 277 278 279 279 280
240 240 239 238 239 240 241 243 243 244 245 246 247 249 251 252 253 254 255 255 255 255 257 259 259 260 262 264 265 267 268 269 271 272 273 274 275 276 277 278 279 280 281
242 242 241 240 239 241 242 243 244 245 247 247 248 250 252 253 254 255 254 255 256 256 258 259 259 260 262 264 265 266 268 269 270 271 272 274 275 276 277 278 279 280 282
242 242 243 242 241 241 243 244 244 245 247 248 249 250 251 252 254 255 256 255 255 256 257 258 259 260 262 263 264 266 267 268 269 270 272 273 275 276 277 278 279 281 281
243 244 245 244 242 242 243 243 244 245 246 248 249 249 251 253 253 254 256 256 256 256 257 258 259 260 261 263 264 265 266 267 269 271 272 274 275 276 277 278 279 279 280
245 246 246 247 245 244 244 244 244 245 246 248 249 250 251 253 254 255 255 256 257 257 257 257 258 259 261 263 264 264 265 267 268 270 272 273 274 275 275 276 277 279 280
246 246 247 247 246 245 244 245 245 245 246 247 249 250 251 253 254 254 255 256 256 257 257 257 258 260 261 262 263 265 265 267 268 269 271 272 273 273 275 276 277 279 280
247 247 247 248 248 247 246 246 246 246 246 247 248 250 252 252 254 255 255 256 256 257 257 258 259 260 261 262 264 264 265 266 267 269 270 271 272 273 274 275 277 279 280
248 248 248 249 250 249 248 247 247 247 247 248 249 250 252 253 254 254 255 256 256 257 257 258 259 259 261 262 263 263 264 266 267 269 270 271 272 273 273 274 276 278 280
247 247 248 249 250 250 249 249 249 249 250 250 250 251 252 253 255 256 256 256 256 256 257 258 258 259 260 262 263 263 264 265 267 269 269 270 272 272 273 274 276 278 280
250 250 250 251 251 251 251 251 251 251 251 251 252 253 254 254 255 255 256 256 256 257 257 257 259 260 262 262 263 263 264 266 267 268 269 271 271 272 273 275 277 278 280
251 251 251 251 252 252 252 252 252 252 252 252 252 253 253 254 255 256 256 256 257 258 258 259 259 260 261 262 263 264 266 267 268 268 269 270 271 272 274 275 277 279 280
252 252 251 250 251 252 252 252 252 252 252 253 253 252 253 254 256 256 257 257 258 259 260 261 261 261 261 262 263 264 266 267 268 269 270 271 271 273 274 276 277 279 280
253 252 252 251 252 253 253 253 252 252 253 253 253 253 253 254 255 255 256 256 257 258 260 260 260 261 261 262 263 264 265 267 269 270 271 271 272 274 275 276 277 279 281
253 253 253 252 253 253 254 253 253 253 254 254 254 255 255 255 256 257 257 257 258 258 259 259 260 261 262 262 263 264 266 267 269 270 271 272 273 274 275 276 278 280 282
252 252 252 252 252 253 253 253 253 254 255 255 255 255 256 256 258 259 259 259 259 258 258 259 260 262 262 263 264 265 266 267 268 269 271 272 273 274 275 277 278 281 283
253 253 252 252 253 254 255 255 255 255 255 255 256 256 256 256 257 258 259 260 259 259 259 260 261 263 264 265 266 266 266 267 268 269 270 272 273 275 276 277 278 280 282
253 253 253 253 254 254 255 256 256 255 255 255 255 255 256 257 258 259 259 260 260 260 261 261 262 263 265 267 267 267 267 267 268 269 269 270 272 274 275 276 277 279 281
252 252 253 253 254 254 254 255 255 255 256 256 256 255 256 257 259 259 259 260 260 262 262 262 263 265 266 267 268 268 268 268 268 268 269 270 272 274 275 277 278 279 281
252 253 253 253 254 255 256 256 256 256 257 258 257 256 256 258 260 260 260 260 260 263 263 264 265 266 267 268 268 269 269 268 268 269 270 271 273 274 275 277 278 279 281
254 253 253 254 254 255 256 256 257 258 258 258 258 258 258 259 260 260 260 260 262 263 264 265 266 267 268 267 268 269 269 268 269 269 271 272 274 274 275 277 278 279 281